Location: Moonridge Observatory
(39.2268°N, 77.7914°W)
Time: 12:41:30
(UTC-04:00)

Amateur Radio Satellites - All Passes

Search period start: 21 October 2014 12:11
Search period end: 22 October 2014 12:11
Location: Moonridge Observatory, 39.2268°N, 77.7914°W

Satellite Date Start Highest point End Downlink Frequencies (MHz)
Time Altitude Azimuth
Oscar 11 21 Oct 12:15:04 12:17:29 15° 295° (WNW) 12:19:55 145.825 FM, Beacon 2401.500 USB
HO-68 21 Oct 12:27:00 12:30:47 15° 306° (NW) 12:34:34 435.675 MHz FM
PANSAT 21 Oct 12:48:02 12:49:55 13° 191° (S) 12:51:48 not established
Sapphire 21 Oct 12:50:56 12:53:48 14° 42° (NE) 12:56:38 437.095 MHz 1200 baud AX-25 AFSK
ZACube-1 21 Oct 12:53:34 12:55:38 13° 296° (WNW) 12:57:41 437.345 MHz
Oscar 19 21 Oct 13:00:01 13:04:12 26° 66° (ENE) 13:08:23 437.125 CW, 437.150 USB
AO-27 21 Oct 13:09:57 13:12:27 14° 60° (ENE) 13:14:57 436.795 MHz FM
PCSat 21 Oct 13:13:06 13:17:15 22° 48° (NE) 13:21:22 145.825 MHz
JAS-1B 21 Oct 13:14:00 13:19:12 31° 67° (ENE) 13:24:07 435.800 - 435.900 CW/SSB
Oscar 16 21 Oct 13:43:56 13:49:04 69° 74° (ENE) 13:54:13 437.025 USB, Beacon 2401.1428
KITSAT 1 21 Oct 13:46:22 13:54:27 80° 300° (WNW) 14:02:35 435.175 FM
Uribyol 2 21 Oct 13:56:55 14:01:43 39° 69° (ENE) 14:06:33 436.500 FM
Gurwin Techsat 1B 21 Oct 14:00:22 14:04:14 21° 64° (ENE) 14:08:06 435.225 FM
ISS 21 Oct 14:01:15 14:04:21 38° 136° (SE) 14:07:29 145.800 FM
ITAMSAT 1 21 Oct 14:01:54 14:06:44 40° 70° (ENE) 14:11:36 435.822 SSB
AO-Echo 21 Oct 14:10:10 14:14:54 59° 73° (ENE) 14:19:48 ?
TMSAT-1 21 Oct 14:14:10 14:18:00 21° 64° (ENE) 14:21:50 436.925 FM
SO-50 21 Oct 14:28:16 14:32:44 80° 302° (WNW) 14:37:22 436.795 FM
Sapphire 21 Oct 14:32:36 14:38:04 83° 62° (ENE) 14:43:29 437.095 MHz 1200 baud AX-25 AFSK
UOSAT-12 21 Oct 14:36:33 14:37:28 11° 106° (ESE) 14:38:24 437.025 FM, 437.400 FM
Oscar 19 21 Oct 14:38:35 14:43:20 37° 262° (W) 14:48:06 437.125 CW, 437.150 USB
AO-7 21 Oct 14:41:33 14:46:55 19° 52° (NE) 14:52:17 29.400 - 29.500 MHz
AO-27 21 Oct 14:46:05 14:51:16 76° 257° (WSW) 14:56:31 436.795 MHz FM
PCSat 21 Oct 14:55:43 15:01:02 58° 246° (WSW) 15:06:19 145.825 MHz
JAS-1B 21 Oct 15:04:18 15:09:51 34° 262° (W) 15:15:01 435.800 - 435.900 CW/SSB
Oscar 16 21 Oct 15:26:30 15:28:53 13° 269° (W) 15:31:15 437.025 USB, Beacon 2401.1428
Uribyol 2 21 Oct 15:37:05 15:41:16 24° 265° (W) 15:45:30 436.500 FM
ISS 21 Oct 15:38:14 15:41:07 26° 332° (NNW) 15:44:01 145.800 FM
Gurwin Techsat 1B 21 Oct 15:38:42 15:43:49 49° 260° (W) 15:48:58 435.225 FM
Oscar 10/S400 21 Oct 15:40:38 15:58:29 53° 160° (SSE) 16:34:54 145.825 - 145.975 CW/USB, Beacon 145.810 USB
ITAMSAT 1 21 Oct 15:42:15 15:46:20 23° 266° (W) 15:50:28 435.822 SSB
KITSAT 1 21 Oct 15:45:19 15:51:11 21° 323° (NW) 15:57:04 435.175 FM
AO-Echo 21 Oct 15:51:37 15:54:06 14° 270° (W) 15:56:37 ?
TMSAT-1 21 Oct 15:52:25 15:57:32 49° 260° (W) 16:02:41 436.925 FM
Uosat F 21 Oct 15:52:34 15:56:37 25° 66° (ENE) 16:00:42 435.120 FM
SO-50 21 Oct 16:12:16 16:14:05 12° 322° (NW) 16:15:56 436.795 FM
UOSAT-12 21 Oct 16:12:16 16:16:54 79° 302° (WNW) 16:21:38 437.025 FM, 437.400 FM
Sapphire 21 Oct 16:18:47 16:20:42 12° 258° (WSW) 16:22:37 437.095 MHz 1200 baud AX-25 AFSK
AO-40 21 Oct 16:29:07 23:27:20 43° 184° (S) 05:14:02 Beacon 2401.320
AO-7 21 Oct 16:30:16 16:38:32 86° 71° (ENE) 16:46:52 29.400 - 29.500 MHz
Saudisat 1A 21 Oct 16:31:41 16:34:19 15° 43° (NE) 16:36:56 436.775 MHz
JAS-2 21 Oct 17:16:46 17:22:05 40° 67° (ENE) 17:28:03 435.800 - 435.900 CW/SSB, 435.910 FM
ISS 21 Oct 17:17:51 17:18:44 11° 352° (N) 17:19:36 145.800 FM
OPAL 21 Oct 17:22:31 17:25:34 16° 94° (E) 17:28:36 ?
Uosat F 21 Oct 17:30:38 17:35:13 36° 262° (W) 17:39:50 435.120 FM
Hamsat 21 Oct 17:53:14 17:57:19 48° 74° (ENE) 18:01:22 145.90 MHz
UOSAT-12 21 Oct 17:55:50 17:57:50 13° 321° (NW) 17:59:51 437.025 FM, 437.400 FM
Saudisat 1A 21 Oct 18:09:56 18:14:21 70° 241° (WSW) 18:18:43 436.775 MHz
AO-7 21 Oct 18:26:57 18:32:12 18° 269° (W) 18:37:30 29.400 - 29.500 MHz
SO-67 21 Oct 18:32:20 18:34:02 13° 68° (ENE) 18:35:44 435.3500 MHz FM
ISS 21 Oct 18:55:10 18:56:38 12° 13° (NNE) 18:58:07 145.800 FM
OPAL 21 Oct 18:59:55 19:04:46 53° 290° (WNW) 19:09:33 ?
STRAND 1 21 Oct 19:00:33 19:04:05 18° 93° (E) 19:07:36 ?
JAS-2 21 Oct 19:02:24 19:07:18 29° 267° (W) 19:12:44 435.800 - 435.900 CW/SSB, 435.910 FM
HO-68 21 Oct 19:21:23 19:24:27 13° 52° (NE) 19:27:31 435.675 MHz FM
Hamsat 21 Oct 19:31:36 19:33:31 13° 269° (W) 19:35:25 145.90 MHz
KITSAT 1 21 Oct 19:47:16 19:50:42 13° 25° (NNE) 19:54:08 435.175 FM
SO-67 21 Oct 20:03:37 20:06:43 31° 263° (W) 20:09:49 435.3500 MHz FM
ISS 21 Oct 20:30:54 20:34:04 39° 32° (NNE) 20:37:14 145.800 FM
STRAND 1 21 Oct 20:38:33 20:43:32 50° 289° (WNW) 20:48:28 ?
UKube-1 21 Oct 20:48:55 20:51:03 14° 63° (ENE) 20:53:11 145.840 MHz, 145.915 MHz
HO-68 21 Oct 21:03:47 21:10:53 71° 71° (ENE) 21:18:01 435.675 MHz FM
RS-15 21 Oct 21:18:41 21:25:12 18° 99° (E) 21:31:38 29.354 - 29.394 USB, Beacon 29.352 USB
SO-50 21 Oct 21:22:27 21:24:07 12° 38° (NE) 21:25:47 436.795 FM
FUNcube-1 21 Oct 21:22:50 21:24:36 12° 63° (ENE) 21:26:22 145.950 - 145.970 MHz USB
Oscar 11 21 Oct 21:31:38 21:35:30 33° 71° (ENE) 21:39:23 145.825 FM, Beacon 2401.500 USB
KITSAT 1 21 Oct 21:41:00 21:48:37 43° 51° (NE) 21:56:12 435.175 FM
ISS 21 Oct 22:07:58 22:10:37 22° 228° (SW) 22:13:15 145.800 FM
ZACube-1 21 Oct 22:10:35 22:14:50 38° 72° (ENE) 22:19:04 437.345 MHz
UKube-1 21 Oct 22:22:29 22:26:45 55° 259° (W) 22:31:02 145.840 MHz, 145.915 MHz
HO-68 21 Oct 22:54:07 22:59:08 20° 268° (W) 23:04:12 435.675 MHz FM
FUNcube-1 21 Oct 22:55:48 23:00:24 69° 259° (WSW) 23:04:58 145.950 - 145.970 MHz USB
SO-50 21 Oct 23:00:43 23:05:34 68° 57° (ENE) 23:10:25 436.795 FM
UOSAT-12 21 Oct 23:05:25 23:06:36 11° 37° (NE) 23:07:47 437.025 FM, 437.400 FM
Oscar 11 21 Oct 23:08:30 23:11:44 20° 266° (W) 23:14:58 145.825 FM, Beacon 2401.500 USB
RS-15 21 Oct 23:24:45 23:35:47 84° 118° (ESE) 23:46:44 29.354 - 29.394 USB, Beacon 29.352 USB
KITSAT 1 21 Oct 23:36:30 23:44:00 44° 250° (WSW) 23:51:30 435.175 FM
ZACube-1 21 Oct 23:48:00 23:51:19 20° 267° (W) 23:54:39 437.345 MHz
UOSAT-12 22 Oct 00:42:58 00:47:41 65° 56° (ENE) 00:52:17 437.025 FM, 437.400 FM
SO-50 22 Oct 00:43:08 00:45:34 14° 252° (WSW) 00:48:00 436.795 FM
MaSat-1 22 Oct 01:07:28 01:11:44 69° 296° (WNW) 01:15:38 437.345 MHz
RS-15 22 Oct 01:40:04 01:49:28 32° 324° (NW) 01:58:57 29.354 - 29.394 USB, Beacon 29.352 USB
Oscar 16 22 Oct 01:57:21 02:01:36 26° 95° (E) 02:05:50 437.025 USB, Beacon 2401.1428
Uribyol 2 22 Oct 02:12:09 02:14:59 15° 91° (E) 02:17:49 436.500 FM
ITAMSAT 1 22 Oct 02:17:09 02:20:12 16° 92° (E) 02:23:14 435.822 SSB
AO-Echo 22 Oct 02:18:54 02:23:02 23° 94° (E) 02:27:09 ?
UOSAT-12 22 Oct 02:25:01 02:27:14 13° 253° (WSW) 02:29:26 437.025 FM, 437.400 FM
JAS-1B 22 Oct 02:46:29 02:53:00 63° 102° (ESE) 03:00:47 435.800 - 435.900 CW/SSB
Oscar 19 22 Oct 02:50:44 02:55:53 85° 104° (ESE) 03:00:59 437.125 CW, 437.150 USB
AO-27 22 Oct 03:00:24 03:05:22 42° 99° (E) 03:10:17 436.795 MHz FM
Sapphire 22 Oct 03:34:06 03:35:53 12° 102° (ESE) 03:37:39 437.095 MHz 1200 baud AX-25 AFSK
Oscar 16 22 Oct 03:36:21 03:40:59 35° 291° (WNW) 03:45:34 437.025 USB, Beacon 2401.1428
Uribyol 2 22 Oct 03:49:43 03:54:53 63° 287° (WNW) 03:59:59 436.500 FM
PCSat 22 Oct 03:54:31 03:58:29 21° 106° (ESE) 04:02:29 145.825 MHz
ITAMSAT 1 22 Oct 03:54:55 04:00:04 60° 287° (WNW) 04:05:11 435.822 SSB
Gurwin Techsat 1B 22 Oct 03:55:46 04:01:06 74° 102° (ESE) 04:06:23 435.225 FM
AO-Echo 22 Oct 03:56:56 04:01:55 43° 289° (WNW) 04:06:55 ?
RS-15 22 Oct 04:00:18 04:06:54 17° 359° (N) 04:13:35 29.354 - 29.394 USB, Beacon 29.352 USB
TMSAT-1 22 Oct 04:09:07 04:14:26 73° 102° (ESE) 04:19:43 436.925 FM
Oscar 19 22 Oct 04:32:44 04:34:28 12° 300° (WNW) 04:36:12 437.125 CW, 437.150 USB
AO-7 22 Oct 04:33:42 04:40:49 31° 96° (E) 04:47:53 29.400 - 29.500 MHz
OPAL 22 Oct 04:35:47 04:40:09 29° 65° (ENE) 04:44:29 ?
JAS-1B 22 Oct 04:38:24 04:43:18 23° 296° (WNW) 04:48:48 435.800 - 435.900 CW/SSB
AO-27 22 Oct 04:40:31 04:44:35 23° 295° (WNW) 04:48:39 436.795 MHz FM
Sapphire 22 Oct 05:13:05 05:18:30 84° 298° (WNW) 05:23:57 437.095 MHz 1200 baud AX-25 AFSK
PCSat 22 Oct 05:36:15 05:41:30 50° 303° (WNW) 05:46:47 145.825 MHz
Gurwin Techsat 1B 22 Oct 05:37:38 05:40:24 15° 299° (WNW) 05:43:10 435.225 FM
Uosat F 22 Oct 05:38:49 05:43:54 76° 103° (ESE) 05:48:56 435.120 FM
TMSAT-1 22 Oct 05:50:54 05:53:42 15° 299° (WNW) 05:56:30 436.925 FM
JAS-2 22 Oct 06:10:28 06:17:53 47° 98° (E) 06:25:20 435.800 - 435.900 CW/SSB, 435.910 FM
OPAL 22 Oct 06:14:13 06:18:53 34° 261° (W) 06:23:31 ?
RS-15 22 Oct 06:15:12 06:24:34 30° 34° (NE) 06:34:10 29.354 - 29.394 USB, Beacon 29.352 USB
STRAND 1 22 Oct 06:15:24 06:19:30 25° 66° (ENE) 06:23:37 ?
AO-7 22 Oct 06:25:50 06:33:54 58° 294° (WNW) 06:41:59 29.400 - 29.500 MHz
Sapphire 22 Oct 06:59:53 07:02:45 14° 317° (NW) 07:05:38 437.095 MHz 1200 baud AX-25 AFSK
Hamsat 22 Oct 07:15:30 07:19:40 68° 284° (WNW) 07:23:51 145.90 MHz
Uosat F 22 Oct 07:19:44 07:22:00 13° 299° (WNW) 07:24:16 435.120 FM
SO-67 22 Oct 07:28:23 07:30:42 17° 94° (E) 07:33:00 435.3500 MHz FM
STRAND 1 22 Oct 07:53:43 07:58:27 38° 262° (W) 08:03:15 ?
JAS-2 22 Oct 07:55:44 08:02:39 38° 294° (WNW) 08:09:42 435.800 - 435.900 CW/SSB, 435.910 FM
Saudisat 1A 22 Oct 08:15:21 08:19:24 38° 115° (ESE) 08:23:29 436.775 MHz
AO-7 22 Oct 08:21:59 08:24:55 12° 314° (NW) 08:27:52 29.400 - 29.500 MHz
RS-15 22 Oct 08:27:21 08:38:36 88° 60° (ENE) 08:50:21 29.354 - 29.394 USB, Beacon 29.352 USB
HO-68 22 Oct 08:35:56 08:38:39 12° 88° (E) 08:41:22 435.675 MHz FM
SO-67 22 Oct 09:00:50 09:03:39 24° 289° (WNW) 09:06:27 435.3500 MHz FM
PANSAT 22 Oct 09:04:26 09:05:30 11° 166° (SSE) 09:06:34 not established
Saudisat 1A 22 Oct 09:55:33 09:59:04 23° 313° (NW) 10:02:37 436.775 MHz
UKube-1 22 Oct 10:12:05 10:15:46 26° 96° (E) 10:19:25 145.840 MHz, 145.915 MHz
HO-68 22 Oct 10:20:05 10:27:20 81° 105° (ESE) 10:34:31 435.675 MHz FM
RS-15 22 Oct 10:41:40 10:49:33 23° 259° (W) 10:57:42 29.354 - 29.394 USB, Beacon 29.352 USB
PANSAT 22 Oct 10:42:30 10:44:57 16° 178° (S) 10:47:24 not established
FUNcube-1 22 Oct 10:46:51 10:50:18 24° 95° (E) 10:53:40 145.950 - 145.970 MHz USB
MaSat-1 22 Oct 10:55:41 10:58:01 29° 251° (WSW) 11:00:11 437.345 MHz
Oscar 11 22 Oct 10:55:46 11:00:06 78° 102° (ESE) 11:04:23 145.825 FM, Beacon 2401.500 USB
ZACube-1 22 Oct 11:37:00 11:41:19 87° 283° (WNW) 11:45:30 437.345 MHz
UKube-1 22 Oct 11:48:14 11:51:52 26° 292° (WNW) 11:55:30 145.840 MHz, 145.915 MHz
